Location: Heisler
(52.6701°N, 112.2239°W)
Time: 11:03:17
(UTC+00:00)

N. Korean satellite - Pass Details

Date: 01 December 2021
Orbit: 447 x 491 km, 97.3° (Epoch: 21 January)

Event Time Altitude Azimuth Distance (km) Brightness Sun altitude
Rises 14:04:01 0° 1° (N) 2,486 10.0 -10.6°
Reaches altitude 10° 14:06:30 10° 342° (NNW) 1,600 8.8 -10.3°
Maximum altitude 14:08:53 18° 298° (WNW) 1,184 7.9 -9.9°
Drops below altitude 10° 14:11:15 10° 253° (WSW) 1,581 8.7 -9.6°
Sets 14:13:42 0° 234° (SW) 2,445 9.8 -9.3°
